When you browse on this site, cookies collect data to enhance your experience and personalize the content and advertising you see.
Visit our Privacy Policy to learn more. By continuing to use the site, you agree to this use of cookies and data.
  • In Deutschland
  • Länderverzeichnis
  • Für 7 Tage
  • Wassertemperatur
  • Satellitenkarten
  • Wetterkarte
  • Widgets
  • user-avatar
    Anmelden

    Stündliche Wetter Daverdisse

    Heute, 14 Dezember, Freitag

    Zeit Temperatur Niederschläge Wind Luftdruck Luftfeuchtigkeit
    00:00 -5°C° 0 mm 3 m/S 729 mmHg 78%
    01:00 -5°C° 0 mm 3 m/S 729 mmHg 79%
    02:00 -5°C° 0 mm 3 m/S 729 mmHg 81%
    03:00 -5°C° 0 mm 3 m/S 729 mmHg 82%
    04:00 -4°C° 0 mm 2 m/S 729 mmHg 83%
    05:00 -5°C° 0 mm 2 m/S 729 mmHg 84%
    06:00 -5°C° 0 mm 2 m/S 729 mmHg 85%
    07:00 -5°C° 0 mm 2 m/S 730 mmHg 82%
    08:00 -4°C° 0 mm 2 m/S 730 mmHg 79%
    09:00 -4°C° 0 mm 2 m/S 730 mmHg 76%
    10:00 -4°C° 0 mm 3 m/S 731 mmHg 70%
    11:00 -2°C° 0 mm 3 m/S 731 mmHg 65%
    12:00 -1°C° 0 mm 3 m/S 731 mmHg 59%
    13:00 -1°C° 0 mm 2 m/S 731 mmHg 61%
    14:00 -2°C° 0 mm 2 m/S 731 mmHg 62%
    15:00 -2°C° 0 mm 2 m/S 731 mmHg 64%
    16:00 -3°C° 0 mm 2 m/S 731 mmHg 67%
    17:00 -1°C° 0 mm 1 m/S 732 mmHg 71%
    18:00 -2°C° 0 mm 1 m/S 732 mmHg 74%
    19:00 -2°C° 0 mm 1 m/S 732 mmHg 76%
    20:00 -5°C° 0 mm 2 m/S 732 mmHg 78%
    21:00 -5°C° 0 mm 2 m/S 732 mmHg 80%
    22:00 -3°C° 0 mm 1 m/S 732 mmHg 80%
    23:00 -3°C° 0 mm 1 m/S 732 mmHg 81%

    Morgen, 15 Dezember, Samstag

    Zeit Temperatur Niederschläge Wind Luftdruck Luftfeuchtigkeit
    00:00 -3°C° 0 mm 1 m/S 732 mmHg 82%
    01:00 -3°C° 0 mm 1 m/S 732 mmHg 82%
    02:00 -3°C° 0 mm 1 m/S 732 mmHg 83%
    03:00 -3°C° 0 mm 1 m/S 732 mmHg 83%
    04:00 -6°C° 0 mm 2 m/S 732 mmHg 83%
    05:00 -6°C° 0 mm 2 m/S 732 mmHg 82%
    06:00 -6°C° 0 mm 2 m/S 731 mmHg 82%
    07:00 -6°C° 0 mm 3 m/S 731 mmHg 79%
    08:00 -6°C° 0 mm 3 m/S 731 mmHg 75%
    09:00 -5°C° 0 mm 4 m/S 731 mmHg 71%
    10:00 -4°C° 0 mm 4 m/S 731 mmHg 67%
    11:00 -3°C° 0 mm 4 m/S 731 mmHg 62%
    12:00 -2°C° 0 mm 4 m/S 730 mmHg 57%
    13:00 -2°C° 0 mm 4 m/S 730 mmHg 59%
    14:00 -2°C° 0 mm 5 m/S 729 mmHg 60%
    15:00 -4°C° 0 mm 5 m/S 729 mmHg 61%
    16:00 -4°C° 0 mm 5 m/S 728 mmHg 61%
    17:00 -4°C° 0 mm 6 m/S 727 mmHg 60%
    18:00 -4°C° 0 mm 7 m/S 727 mmHg 59%
    19:00 -4°C° 0.5 mm 7 m/S 726 mmHg 64%
    20:00 -4°C° 0.5 mm 7 m/S 725 mmHg 69%
    21:00 -5°C° 0.5 mm 8 m/S 725 mmHg 74%
    22:00 -4°C° 1.7 mm 8 m/S 724 mmHg 80%
    23:00 -4°C° 1.7 mm 8 m/S 723 mmHg 85%

    übermorgen, 16 Dezember, Sonntag

    Zeit Temperatur Niederschläge Wind Luftdruck Luftfeuchtigkeit
    00:00 -3°C° 1.7 mm 7 m/S 723 mmHg 90%
    01:00 -3°C° 0.2 mm 6 m/S 722 mmHg 91%
    02:00 -1°C° 0.2 mm 5 m/S 722 mmHg 93%
    03:00 -1°C° 0.2 mm 4 m/S 722 mmHg 94%
    04:00 -1°C° 0.1 mm 4 m/S 722 mmHg 95%
    05:00 -1°C° 0.1 mm 4 m/S 722 mmHg 95%
    06:00 0°C° 0.1 mm 3 m/S 723 mmHg 96%
    07:00 0°C° 0.1 mm 3 m/S 723 mmHg 96%
    08:00 +1°C° 0.1 mm 3 m/S 723 mmHg 97%
    09:00 +1°C° 0.1 mm 3 m/S 724 mmHg 97%
    10:00 +1°C° 0.4 mm 3 m/S 724 mmHg 97%
    11:00 +1°C° 0.4 mm 3 m/S 724 mmHg 97%
    12:00 +2°C° 0.4 mm 3 m/S 724 mmHg 97%
    13:00 +1°C° 0.2 mm 3 m/S 724 mmHg 97%
    14:00 +1°C° 0.2 mm 3 m/S 724 mmHg 97%
    15:00 +1°C° 0.2 mm 3 m/S 724 mmHg 97%
    16:00 +1°C° 0 mm 3 m/S 725 mmHg 97%
    17:00 +1°C° 0 mm 3 m/S 725 mmHg 97%
    18:00 +1°C° 0 mm 3 m/S 725 mmHg 97%
    19:00 +2°C° 0 mm 2 m/S 725 mmHg 97%
    20:00 +2°C° 0 mm 2 m/S 726 mmHg 97%
    21:00 +2°C° 0 mm 2 m/S 726 mmHg 97%
    22:00 +2°C° 0 mm 2 m/S 726 mmHg 97%
    23:00 +2°C° 0 mm 2 m/S 726 mmHg 97%

    17 Dezember, Montag

    Zeit Temperatur Niederschläge Wind Luftdruck Luftfeuchtigkeit
    00:00 +2°C° 0 mm 2 m/S 726 mmHg 97%
    01:00 +2°C° 0 mm 2 m/S 726 mmHg 97%
    02:00 +1°C° 0 mm 2 m/S 726 mmHg 97%
    03:00 0°C° 0 mm 3 m/S 726 mmHg 97%
    04:00 +1°C° 0.2 mm 3 m/S 726 mmHg 96%
    05:00 +1°C° 0.2 mm 3 m/S 726 mmHg 96%
    06:00 +1°C° 0.2 mm 3 m/S 726 mmHg 95%
    07:00 +1°C° 0.8 mm 3 m/S 727 mmHg 95%
    08:00 +1°C° 0.8 mm 3 m/S 728 mmHg 95%
    09:00 +1°C° 0.8 mm 3 m/S 728 mmHg 96%
    10:00 +2°C° 0.3 mm 2 m/S 728 mmHg 96%
    11:00 +3°C° 0.3 mm 2 m/S 729 mmHg 96%
    12:00 +3°C° 0.3 mm 2 m/S 729 mmHg 96%
    13:00 +3°C° 0.1 mm 2 m/S 730 mmHg 96%
    14:00 +3°C° 0.1 mm 2 m/S 730 mmHg 97%
    15:00 +3°C° 0.1 mm 2 m/S 730 mmHg 97%
    16:00 +3°C° 0 mm 2 m/S 731 mmHg 97%
    17:00 +2°C° 0 mm 2 m/S 732 mmHg 97%
    18:00 +2°C° 0 mm 2 m/S 732 mmHg 97%
    19:00 +2°C° 0 mm 2 m/S 732 mmHg 97%
    20:00 +1°C° 0 mm 3 m/S 733 mmHg 97%
    21:00 +1°C° 0 mm 3 m/S 733 mmHg 97%
    22:00 +1°C° 0 mm 3 m/S 733 mmHg 97%
    23:00 +1°C° 0 mm 3 m/S 733 mmHg 96%

    18 Dezember, Dienstag

    Zeit Temperatur Niederschläge Wind Luftdruck Luftfeuchtigkeit
    00:00 +1°C° 0 mm 3 m/S 733 mmHg 96%
    01:00 +1°C° 0 mm 3 m/S 733 mmHg 96%
    02:00 +1°C° 0 mm 3 m/S 733 mmHg 96%
    03:00 0°C° 0 mm 4 m/S 732 mmHg 96%
    04:00 0°C° 0 mm 4 m/S 732 mmHg 96%
    05:00 0°C° 0 mm 4 m/S 732 mmHg 96%
    06:00 0°C° 0 mm 4 m/S 731 mmHg 96%
    07:00 0°C° 0 mm 4 m/S 731 mmHg 94%
    08:00 0°C° 0 mm 5 m/S 731 mmHg 93%
    09:00 0°C° 0 mm 5 m/S 730 mmHg 91%
    10:00 +1°C° 0 mm 5 m/S 730 mmHg 86%
    11:00 +1°C° 0 mm 6 m/S 729 mmHg 81%
    12:00 +2°C° 0 mm 6 m/S 728 mmHg 76%
    13:00 +2°C° 0 mm 7 m/S 727 mmHg 75%
    14:00 +2°C° 0 mm 7 m/S 726 mmHg 74%
    15:00 +2°C° 0 mm 7 m/S 725 mmHg 73%
    16:00 +2°C° 0 mm 6 m/S 725 mmHg 74%
    17:00 +2°C° 0 mm 6 m/S 725 mmHg 75%
    18:00 +1°C° 0 mm 6 m/S 724 mmHg 77%
    19:00 +2°C° 0.6 mm 6 m/S 724 mmHg 80%
    20:00 +2°C° 0.6 mm 6 m/S 724 mmHg 83%
    21:00 +2°C° 0.6 mm 6 m/S 724 mmHg 87%
    22:00 +2°C° 0.8 mm 5 m/S 724 mmHg 89%
    23:00 +3°C° 0.8 mm 5 m/S 724 mmHg 91%

    19 Dezember, Mittwoch

    Zeit Temperatur Niederschläge Wind Luftdruck Luftfeuchtigkeit
    00:00 +3°C° 0.8 mm 5 m/S 724 mmHg 94%
    01:00 +3°C° 0 mm 5 m/S 724 mmHg 94%
    02:00 +4°C° 0 mm 4 m/S 724 mmHg 95%
    03:00 +4°C° 0 mm 4 m/S 724 mmHg 95%
    04:00 +4°C° 0 mm 4 m/S 724 mmHg 95%
    05:00 +3°C° 0 mm 4 m/S 725 mmHg 95%
    06:00 +3°C° 0 mm 4 m/S 725 mmHg 95%
    07:00 +2°C° 0.1 mm 5 m/S 725 mmHg 94%
    08:00 +3°C° 0.1 mm 6 m/S 725 mmHg 93%
    09:00 +3°C° 0.1 mm 6 m/S 725 mmHg 92%
    10:00 +3°C° 0.7 mm 6 m/S 725 mmHg 91%
    11:00 +3°C° 0.7 mm 6 m/S 725 mmHg 90%
    12:00 +3°C° 0.7 mm 6 m/S 724 mmHg 89%
    13:00 +3°C° 0.1 mm 5 m/S 725 mmHg 88%
    14:00 +3°C° 0.1 mm 5 m/S 725 mmHg 87%
    15:00 +4°C° 0.1 mm 4 m/S 725 mmHg 86%
    16:00 +4°C° 0 mm 4 m/S 725 mmHg 87%
    17:00 +2°C° 0 mm 5 m/S 725 mmHg 89%
    18:00 +2°C° 0 mm 5 m/S 725 mmHg 90%
    19:00 +2°C° 0 mm 5 m/S 725 mmHg 90%
    20:00 +2°C° 0 mm 5 m/S 725 mmHg 91%
    21:00 +2°C° 0 mm 6 m/S 724 mmHg 91%
    22:00 +2°C° 0.1 mm 6 m/S 724 mmHg 91%
    23:00 +2°C° 0.1 mm 6 m/S 724 mmHg 91%
    Mehr zeigen